Theta_e
346 345 347 347 349 349 346 345 345 344 346 345 345 345 347 347 349 348 348 347 347 348 346 345 348 348 345 344 344 344 344 345 343 339 341 344 346 345 344 343 343 342 342 342 342 341 342 343 343 343 343 344 344 343 343 343 344 343 343 342 341 341 341 341 340 340 339 338 338 338 338 337 336 335 334 333 331 331 331 330 328 329 330 329 329
346 346 344 345 347 351 351 349 347 346 347 346 345 344 346 348 349 348 345 348 347 348 348 346 345 346 346 345 344 344 344 342 341 339 342 343 346 345 344 343 343 342 342 342 343 343 343 343 343 344 344 343 343 343 343 343 344 343 343 342 341 340 341 340 340 339 339 338 338 338 338 337 336 335 334 333 332 331 331 331 329 327 328 329 328
347 347 346 346 348 349 349 350 348 348 349 346 347 347 347 347 348 347 347 346 346 348 347 348 346 343 345 344 344 346 343 343 340 338 340 343 344 346 345 343 343 342 342 342 342 343 343 343 342 344 344 345 344 342 343 342 343 343 342 342 341 340 340 340 340 340 339 339 339 338 338 336 335 335 334 334 332 331 331 331 330 329 327 327 327
345 346 347 346 347 346 346 349 348 348 350 346 345 348 349 348 349 351 350 350 348 348 350 349 347 342 343 343 344 344 344 343 338 337 340 343 344 345 345 344 343 343 342 342 342 343 343 342 342 343 342 344 343 342 343 343 343 343 342 342 341 340 340 340 340 339 339 338 338 338 338 336 335 335 335 334 332 331 332 331 330 330 329 328 327
346 344 344 344 346 347 347 349 349 349 350 350 349 349 349 349 350 351 349 349 349 349 347 348 347 346 345 344 345 343 345 342 340 337 339 342 343 343 344 344 344 343 343 343 342 342 342 342 342 342 343 343 342 341 342 343 343 343 342 342 341 340 340 340 340 339 339 338 338 338 338 336 335 335 335 334 333 332 332 331 329 329 329 329 328
342 342 343 342 343 346 347 347 349 351 350 350 349 350 349 348 347 347 347 347 345 347 347 347 345 345 346 346 345 346 345 341 339 336 338 341 342 343 342 343 343 344 343 343 343 342 342 342 342 341 342 342 341 342 341 340 341 344 343 342 342 341 340 340 339 339 339 338 338 338 338 336 335 335 335 334 333 332 332 331 329 328 329 329 328
343 343 342 342 342 342 344 345 347 347 345 347 347 350 350 349 347 345 347 347 345 346 346 347 346 345 346 348 346 345 346 344 341 336 336 339 342 342 343 341 342 344 342 344 344 343 342 342 342 341 340 342 342 342 341 341 341 343 344 343 342 341 341 340 340 339 339 338 338 338 337 336 336 335 335 334 334 333 332 331 330 329 328 328 328
343 342 342 341 340 341 342 345 347 346 344 345 347 347 348 347 349 348 344 345 346 345 346 346 345 345 347 347 347 346 345 345 342 337 337 339 339 342 342 342 343 343 342 342 343 345 342 342 341 342 340 342 342 342 342 342 341 342 342 341 342 341 341 341 340 339 339 338 337 338 337 337 336 335 335 334 334 333 332 331 331 329 329 329 328
341 342 341 341 340 341 342 343 346 346 345 345 345 346 347 346 347 348 347 344 344 344 345 345 344 345 345 346 347 347 346 346 345 338 336 338 339 338 341 342 342 341 344 344 344 344 343 342 342 342 341 341 342 342 342 343 342 342 342 341 342 342 341 341 340 340 339 338 338 338 337 337 336 335 335 335 334 334 332 331 331 330 329 329 329
338 340 340 341 341 340 339 343 344 345 345 345 345 346 347 347 345 347 347 346 344 344 344 345 344 343 343 344 346 346 345 345 346 341 338 336 338 338 340 342 342 342 342 343 346 345 344 343 342 342 341 342 341 342 341 341 342 342 342 341 341 341 342 341 340 340 339 339 338 337 336 337 336 335 335 335 335 334 333 332 331 330 330 330 329
337 337 338 338 338 338 340 341 342 343 344 343 343 344 345 346 343 344 346 346 345 344 344 344 343 342 342 344 345 345 345 345 345 342 339 338 337 338 339 341 342 341 342 343 342 347 346 346 345 345 345 342 342 342 341 341 341 341 342 341 341 341 341 341 340 340 340 339 338 337 337 337 336 336 335 335 335 335 333 332 331 331 330 330 330
334 336 337 336 337 338 337 340 340 341 340 340 340 342 342 343 342 339 343 345 345 344 345 344 343 342 341 343 343 343 344 345 344 344 343 343 340 339 339 341 340 341 342 342 342 343 343 346 342 343 345 344 342 342 341 341 341 342 342 341 340 341 341 341 340 340 340 339 339 338 337 337 336 336 336 335 335 335 334 333 332 331 331 331 331
333 333 335 334 336 338 338 339 339 339 339 337 341 341 343 342 341 341 339 340 341 345 345 344 339 337 340 340 341 342 341 341 342 343 343 341 342 338 340 340 340 340 340 342 341 342 342 342 343 344 345 343 344 342 342 342 342 342 342 341 340 340 340 340 340 340 340 339 339 338 337 337 337 336 336 336 335 335 335 334 332 332 331 332 331
333 333 334 334 334 334 337 338 338 338 339 338 337 341 342 341 341 339 339 337 340 343 344 342 336 334 333 333 335 338 338 340 340 341 344 344 343 342 343 342 340 341 341 340 341 342 342 341 341 340 341 342 345 344 344 344 342 340 343 343 341 340 340 340 340 340 340 340 339 339 338 337 337 337 337 336 336 335 335 335 334 333 332 331 332
331 331 332 333 334 333 334 337 339 338 338 337 338 340 340 338 340 335 337 336 336 342 342 343 337 337 337 332 328 324 332 337 336 340 342 344 343 343 342 342 341 342 341 340 340 340 341 341 340 341 341 340 340 343 345 342 344 341 341 342 342 340 340 340 340 340 340 340 339 339 339 338 338 338 338 337 336 336 335 335 335 334 333 331 331
330 329 330 332 334 333 334 334 337 340 338 337 339 336 337 333 336 339 334 334 334 335 342 341 341 336 327 326 328 329 324 326 332 338 342 343 343 343 343 341 340 342 343 341 341 341 340 340 340 341 342 342 341 340 342 344 341 341 341 341 342 342 340 340 340 340 341 340 340 339 339 339 339 339 338 337 336 335 335 335 335 335 334 333 331
329 330 330 331 333 334 334 335 334 338 339 336 335 335 339 337 339 336 338 332 333 337 339 343 340 343 336 328 325 325 324 331 332 330 338 339 341 343 344 344 341 340 339 340 342 341 341 341 342 341 343 343 343 341 341 341 343 343 342 341 341 341 341 340 340 340 340 340 340 340 339 339 339 339 338 337 337 336 336 335 335 335 335 334 333
326 327 328 329 331 333 334 334 335 335 337 336 337 337 337 338 336 337 336 337 333 335 336 341 342 340 342 337 336 328 328 331 329 324 338 341 341 341 342 343 344 342 340 339 340 340 342 341 342 342 343 343 342 342 341 342 341 341 341 341 341 341 341 341 340 340 340 340 340 340 339 340 339 339 338 338 337 337 336 336 335 335 335 335 334
326 327 327 329 330 331 333 334 334 335 336 337 336 337 337 336 338 336 337 337 336 329 332 336 339 338 338 340 343 342 337 332 328 334 327 331 338 337 339 342 343 344 341 341 340 340 341 342 341 342 343 343 343 342 342 341 338 340 340 340 341 341 341 341 341 340 341 340 340 339 339 340 339 339 339 338 338 337 337 336 335 335 335 335 335
325 325 328 328 329 330 332 333 333 336 335 335 336 336 337 338 338 335 334 334 336 334 329 333 335 333 339 340 341 343 339 340 337 331 330 326 329 337 339 340 342 343 345 343 343 342 342 342 341 341 342 341 342 342 342 342 342 341 340 343 342 342 341 342 341 341 340 340 339 338 338 338 338 338 338 338 338 338 337 336 335 335 335 335 335
324 326 328 327 327 327 328 330 333 335 336 335 336 336 336 337 337 336 337 333 332 335 335 331 333 337 334 335 336 338 338 336 338 338 330 328 329 332 333 339 341 342 343 346 345 345 344 343 342 341 342 342 343 343 342 342 341 342 340 343 342 342 342 342 342 341 341 341 339 339 339 338 337 337 337 338 338 338 338 337 336 336 335 335 335
325 326 327 327 327 328 328 329 332 335 335 336 335 336 336 337 336 337 338 334 334 333 333 335 335 336 340 337 334 335 336 335 336 333 332 336 329 328 331 330 332 337 342 344 345 345 345 346 347 345 342 343 343 343 343 342 341 340 340 340 342 341 341 340 339 340 340 341 340 339 339 338 337 337 337 337 338 338 338 338 337 336 336 335 335
324 326 326 327 328 328 328 328 329 331 334 336 335 335 336 336 336 337 337 335 335 335 332 332 334 331 334 337 332 334 334 333 333 335 333 333 330 329 332 332 330 333 338 341 341 342 344 345 345 345 346 343 343 343 343 343 338 336 333 337 339 340 340 340 340 340 340 341 340 340 340 339 338 337 337 337 337 338 337 338 337 336 336 335 335
323 324 325 326 326 326 328 329 328 330 332 333 335 336 336 335 336 336 337 338 337 337 337 334 334 332 333 335 336 335 336 337 339 338 335 330 329 331 330 332 334 332 339 339 341 341 343 343 344 345 346 345 345 344 343 343 341 334 338 335 337 339 340 341 340 340 340 340 340 340 340 340 338 338 337 337 337 336 337 338 337 336 336 336 336
321 323 324 326 326 326 326 327 328 328 329 331 334 335 335 336 337 337 336 332 335 338 337 334 333 334 332 338 335 332 334 340 343 338 335 335 330 329 330 334 331 332 337 339 338 341 342 342 343 343 345 346 347 345 345 343 342 336 334 334 333 337 340 340 341 340 340 339 339 340 341 340 340 339 338 338 337 337 337 337 338 337 337 337 337
321 322 324 326 326 325 325 325 326 327 327 330 333 334 334 333 334 336 338 338 338 337 337 337 337 337 337 334 333 332 333 337 341 337 337 333 331 329 330 330 333 329 337 335 335 335 339 341 343 344 344 346 345 346 346 344 344 333 332 338 337 333 335 339 341 341 341 340 340 339 340 340 340 340 340 339 338 337 336 336 338 338 338 338 338
321 323 325 326 325 325 326 326 327 328 328 329 332 334 334 333 334 334 335 338 336 335 334 335 335 335 336 337 334 334 335 341 340 340 340 337 334 335 334 329 325 325 332 332 333 333 335 338 341 342 343 346 346 347 345 346 340 333 331 343 345 329 330 333 337 340 341 341 341 340 339 340 340 340 340 339 337 337 337 337 337 338 339 339 339
324 324 323 324 325 325 326 327 327 327 328 328 330 332 333 333 333 334 334 335 334 333 333 333 334 337 339 337 333 332 335 332 334 339 342 341 339 339 338 334 327 325 329 329 330 331 335 336 338 341 342 343 345 346 341 340 345 331 331 345 345 340 326 327 329 334 339 340 341 341 340 340 340 339 339 339 338 338 338 339 337 338 339 340 340
323 324 324 324 325 325 326 326 325 326 327 327 327 329 331 333 334 333 333 336 336 334 335 334 335 337 337 337 336 334 336 337 337 334 335 337 336 338 338 334 332 328 327 323 327 330 332 334 334 337 340 342 344 347 346 345 340 341 346 346 346 348 330 323 323 328 334 338 339 341 342 341 340 341 339 340 340 340 340 340 339 338 339 340 339
323 324 324 324 324 325 325 325 325 325 326 326 327 328 330 332 333 333 334 334 335 335 332 335 336 336 336 338 337 335 338 337 335 334 332 335 334 334 337 335 335 331 330 324 326 331 332 335 336 335 338 340 343 347 347 346 334 342 346 346 347 348 328 320 320 322 326 328 329 332 336 341 341 341 341 341 340 340 341 340 340 339 339 338 337
323 323 323 322 323 323 324 324 324 324 326 326 326 327 329 330 332 333 333 332 330 331 333 335 335 332 331 335 337 335 338 336 335 333 332 336 338 338 339 340 339 338 335 331 326 332 334 328 335 335 337 338 342 345 344 345 339 343 346 348 346 335 324 329 319 320 321 320 322 323 326 333 338 340 341 341 341 341 341 341 341 340 337 334 332
322 322 322 320 321 322 321 322 323 325 324 325 325 326 328 331 332 330 330 331 330 330 332 334 334 331 330 333 333 332 334 332 334 338 337 339 338 338 335 337 338 337 337 335 330 328 336 331 334 337 342 341 343 344 347 348 345 332 348 347 348 328 343 347 321 319 318 317 317 318 318 324 332 336 338 339 340 340 340 340 339 334 330 328 328
321 321 320 321 320 321 321 321 322 323 324 324 325 325 326 327 330 331 330 329 330 331 333 334 335 333 331 331 334 335 333 334 332 329 334 336 337 337 337 336 337 336 335 335 330 329 335 338 335 335 340 342 341 344 344 346 349 347 339 348 349 350 348 347 345 320 317 315 315 314 314 315 318 324 331 336 338 335 335 333 326 325 328 329 328
320 319 319 319 320 320 319 320 321 322 322 322 323 324 324 325 325 327 328 329 330 332 332 332 335 334 331 329 330 333 334 332 333 335 334 337 335 336 336 333 335 334 335 333 331 329 330 340 338 339 341 343 339 342 342 345 347 347 343 346 349 349 346 348 347 345 316 316 315 313 313 312 313 314 316 325 328 321 318 319 319 320 322 323 324
319 319 318 319 318 318 318 319 319 320 321 321 322 323 323 323 324 326 327 327 327 327 328 331 330 333 332 331 332 336 336 333 334 336 336 334 333 335 336 338 336 336 338 337 334 330 329 333 338 336 337 339 338 337 342 345 348 348 343 344 345 346 347 349 347 348 317 316 313 314 312 311 311 311 311 313 315 315 315 315 315 315 315 315 316
318 319 319 318 317 318 317 317 318 318 319 320 320 320 321 322 323 324 325 326 328 330 330 326 328 331 330 328 329 334 335 333 334 336 337 336 337 336 337 338 338 337 338 339 337 334 332 330 336 335 337 335 337 337 342 343 344 342 343 343 346 345 346 345 346 347 326 313 313 313 312 312 311 310 310 310 311 311 312 312 313 313 312 312 312
317 318 318 318 318 317 316 315 316 317 318 319 319 320 321 323 323 323 324 325 327 329 330 328 330 332 331 330 331 332 333 332 330 332 329 334 335 335 333 335 337 336 333 334 338 338 334 331 332 336 337 336 338 339 341 339 340 340 340 339 342 344 346 347 348 343 317 311 313 312 313 312 311 310 310 309 309 309 309 310 310 311 311 311 311
316 317 317 317 316 315 315 315 316 316 318 319 319 319 320 322 323 323 324 325 325 328 328 327 328 332 332 332 331 332 331 331 331 329 332 333 334 334 333 334 334 331 330 335 335 335 334 333 332 332 336 335 335 334 336 338 337 338 334 338 343 343 344 345 344 345 347 343 343 335 316 313 310 309 310 310 309 308 308 308 309 309 310 310 309
315 314 315 314 315 314 314 315 315 316 316 316 316 316 317 318 321 322 323 324 324 326 328 329 330 330 332 332 332 331 329 329 329 329 331 332 332 333 335 333 333 333 333 334 335 334 333 333 334 333 333 334 334 332 338 339 339 339 337 333 334 339 340 341 339 343 346 346 332 322 325 324 321 323 311 307 307 307 307 308 308 309 310 309 308
315 315 314 313 314 314 315 314 313 315 316 315 313 312 314 316 318 320 322 322 323 324 326 327 329 329 329 329 329 329 329 330 331 330 329 329 330 330 335 335 333 333 332 332 331 331 332 331 332 330 332 332 333 335 334 334 336 336 337 336 330 331 331 335 338 340 341 343 342 342 326 325 323 320 308 308 308 310 309 308 308 310 310 309 308
316 316 315 314 313 313 314 314 312 313 315 313 311 309 310 313 316 318 321 322 323 323 324 325 326 328 328 329 329 330 330 330 329 330 331 329 329 330 334 334 333 332 327 330 331 329 330 328 328 330 331 330 331 331 332 332 332 331 335 336 334 334 332 331 341 343 341 340 341 339 339 342 341 342 343 342 336 317 318 311 318 310 310 309 306
317 316 315 314 314 313 313 313 313 314 314 312 306 299 299 306 311 316 320 322 322 322 322 323 325 326 327 330 329 328 328 328 328 323 319 322 326 330 334 331 330 328 327 327 328 328 329 326 325 326 329 329 331 330 330 332 336 337 334 334 332 334 337 336 334 338 339 340 338 338 340 343 341 340 344 342 337 339 340 332 335 326 314 305 305
316 315 315 314 314 313 313 313 314 314 314 311 297 294 294 295 305 315 318 321 321 322 322 323 324 325 327 326 330 329 328 327 328 316 314 312 312 316 319 322 327 330 327 326 326 326 325 325 325 325 326 326 330 333 332 330 333 330 334 333 333 331 332 327 329 332 336 337 335 332 332 336 340 336 338 340 338 337 335 326 308 310 308 307 305
315 316 315 315 314 314 314 314 315 314 314 300 294 294 294 294 297 309 318 320 321 322 322 322 323 324 326 326 327 327 327 328 330 332 322 313 308 310 308 308 310 308 308 323 326 327 327 326 326 328 329 329 329 331 332 331 331 333 333 334 330 333 330 330 327 325 331 335 333 331 330 336 337 336 336 336 335 329 317 309 305 305 305 304 304
314 314 315 315 314 315 315 313 314 314 314 298 294 294 294 293 293 302 317 320 320 322 322 322 323 324 324 325 325 326 327 322 326 329 331 326 310 306 306 306 306 305 301 302 305 324 330 328 325 325 326 329 329 327 328 329 330 326 330 331 331 330 331 330 329 328 329 332 331 331 329 332 335 333 333 333 333 332 323 307 303 303 303 303 302
312 312 315 314 315 314 315 314 314 314 314 300 294 294 294 293 293 297 319 320 320 320 321 322 322 323 324 324 324 324 325 326 326 327 328 329 325 323 324 326 325 318 310 307 306 304 315 328 327 326 326 327 325 325 323 323 328 325 328 328 328 328 327 327 330 329 328 330 329 327 327 329 333 333 332 333 330 326 320 305 302 302 301 301 301
311 311 313 314 314 315 315 315 315 314 315 294 294 293 293 293 293 298 321 319 320 321 321 322 322 323 322 323 324 324 324 324 321 316 324 328 328 327 326 324 322 319 315 313 314 318 326 327 329 325 321 321 321 321 322 325 325 326 328 328 328 328 329 330 331 331 326 323 325 329 323 328 331 329 328 329 329 325 320 305 302 302 301 301 300
312 312 314 315 314 313 314 314 314 313 314 292 294 293 293 293 292 314 319 319 319 319 320 320 321 322 321 322 323 323 324 324 309 296 305 323 328 324 321 318 316 314 309 303 297 301 309 313 314 311 308 305 303 307 308 317 326 327 327 327 328 328 327 325 325 325 321 319 317 322 325 326 328 326 328 330 330 325 319 312 303 303 302 301 301
311 312 313 313 314 314 314 314 313 313 314 300 293 293 293 292 301 318 319 318 318 318 318 319 319 318 318 319 321 322 323 322 302 292 295 314 325 322 319 316 314 313 311 310 301 297 297 296 296 296 296 297 298 298 298 298 306 318 326 326 323 325 323 321 320 322 318 315 312 312 318 322 322 323 325 326 326 325 324 319 314 302 301 301 301
310 312 313 313 314 315 314 314 313 310 313 302 293 293 293 293 299 316 316 316 317 317 317 319 319 318 314 309 312 317 319 315 295 292 297 317 323 320 316 314 312 311 311 313 314 311 300 300 299 298 298 299 300 301 299 300 302 312 323 321 322 322 320 319 318 320 317 313 308 309 317 321 323 322 323 324 324 324 323 322 322 313 302 302 300
311 313 313 312 313 314 315 314 308 312 313 308 294 293 293 294 302 317 315 315 315 316 316 316 318 318 316 310 303 301 304 301 291 293 295 313 324 320 317 316 313 312 313 315 314 313 313 313 313 314 311 310 313 312 310 303 304 310 315 316 319 321 320 320 319 320 315 312 307 307 315 319 321 320 323 323 320 323 324 321 317 318 319 321 317
Wind_Speed
3 3 3 4 2 2 4 4 3 3 3 3 4 4 3 3 3 4 3 2 1 2 2 2 2 2 2 2 2 3 2 2 1 2 3 5 6 9 11 9 8 8 7 8 7 8 9 7 8 9 9 10 11 11 12 12 12 12 12 13 12 13 13 13 13 13 12 12 12 12 13 13 12 12 11 11 9 9 10 9 7 10 13 11 11
3 3 5 2 2 3 3 3 4 3 3 4 4 4 3 3 3 4 4 3 3 2 2 2 4 2 1 1 2 3 2 2 2 3 4 5 6 9 10 10 8 8 7 8 8 7 6 6 8 8 8 9 10 12 12 12 13 13 12 12 12 12 12 13 13 12 12 12 12 13 13 12 12 12 11 11 10 10 10 9 9 8 10 12 11
4 3 3 3 3 4 4 4 4 4 4 4 4 4 4 3 4 3 3 3 2 2 3 3 3 3 3 3 3 2 3 2 2 3 4 4 6 8 10 11 9 8 7 8 8 7 6 6 5 8 9 9 9 10 12 12 13 13 13 12 12 12 13 13 13 11 11 12 12 13 13 12 12 12 12 11 11 10 10 9 9 9 8 9 9
3 3 4 3 4 4 3 4 4 4 5 5 4 4 5 5 4 4 2 2 2 3 2 3 3 2 2 4 3 2 3 2 2 4 4 5 5 7 8 9 10 10 8 9 8 7 6 7 6 6 7 8 8 10 11 13 13 14 13 13 13 12 13 13 12 11 11 12 12 12 13 12 12 12 12 11 11 11 11 10 9 9 9 8 8
2 4 3 3 3 4 5 4 5 4 3 5 5 5 6 5 5 4 4 5 4 2 3 3 2 2 2 2 2 2 1 3 2 3 3 5 5 6 7 9 9 11 10 9 8 9 8 7 7 8 6 6 6 7 8 10 14 13 14 13 13 12 13 13 12 12 11 12 12 12 13 12 12 12 12 12 11 11 11 10 9 10 9 9 8
2 4 3 4 4 5 5 4 2 2 3 5 7 7 6 6 6 6 5 4 5 3 3 3 3 2 2 1 2 2 2 2 3 4 4 5 5 5 6 7 8 8 9 10 9 8 9 8 7 7 5 5 8 7 7 8 11 14 14 14 14 13 13 13 13 13 12 13 13 13 13 12 13 12 12 13 11 11 11 10 9 8 10 9 8
2 2 3 4 4 5 6 5 3 5 5 5 5 5 5 5 6 7 5 5 4 3 3 4 3 2 2 3 3 3 3 2 3 4 6 5 4 5 5 6 6 7 7 8 10 10 9 9 9 9 7 8 10 10 9 9 11 13 14 14 13 13 13 13 13 13 12 11 11 13 13 13 13 12 12 12 12 11 11 11 10 9 8 9 9
4 3 3 3 4 5 4 3 4 5 6 5 5 6 6 6 6 7 6 6 5 5 4 3 2 3 2 3 3 4 4 3 3 4 5 5 6 5 5 5 6 6 5 6 7 10 11 9 9 10 10 9 10 11 10 11 12 12 12 13 14 14 13 13 13 13 13 12 13 12 14 13 13 13 12 12 12 12 11 11 10 9 9 9 9
4 4 3 4 4 5 4 5 5 6 6 6 6 6 5 6 6 6 7 6 6 6 5 3 3 3 3 4 4 4 4 4 4 4 5 5 5 6 5 5 6 6 6 5 6 7 11 11 10 11 11 10 10 10 10 13 12 11 12 13 14 14 14 14 13 13 13 13 13 13 13 13 13 13 13 12 12 12 12 11 11 10 10 10 10
6 4 4 4 5 4 6 4 6 6 6 6 6 6 6 6 7 6 6 7 6 6 6 5 3 4 4 4 4 4 4 4 4 3 4 6 5 5 5 5 5 6 6 6 5 6 7 10 12 11 11 10 10 9 11 11 12 13 13 13 13 14 14 14 14 14 14 14 14 13 11 13 14 13 13 13 12 12 12 12 11 11 10 10 10
5 6 4 4 5 5 4 4 5 5 5 6 6 7 7 6 8 6 5 6 6 6 5 5 5 4 4 5 5 5 5 5 5 5 4 5 6 6 5 6 6 6 6 6 6 5 7 7 8 8 9 12 11 10 10 10 10 11 11 13 13 13 14 14 14 13 14 14 14 13 12 13 14 14 14 13 14 13 12 12 12 11 11 11 10
5 5 6 5 5 5 5 4 5 5 6 7 6 7 8 8 9 10 7 7 7 6 5 5 5 5 5 5 4 5 7 6 6 5 5 4 5 6 6 5 6 6 6 6 7 7 7 7 7 7 8 11 13 12 11 12 12 12 13 14 14 14 14 14 14 14 14 14 15 15 13 13 14 15 14 13 14 14 13 13 13 12 11 11 11
5 4 5 6 6 5 4 4 5 6 6 7 8 8 7 7 9 7 10 9 7 7 6 6 5 6 5 6 6 5 6 8 8 7 6 5 5 6 5 6 6 6 6 5 6 6 7 7 7 7 7 8 10 13 11 12 11 12 13 13 14 14 14 14 14 14 14 13 14 15 14 14 15 14 15 14 14 14 14 14 14 13 12 12 11
5 5 5 6 6 6 5 5 5 6 6 7 9 8 8 8 8 9 8 11 8 8 7 7 6 7 8 6 6 3 7 8 9 8 8 6 6 6 6 6 6 6 6 6 6 6 7 7 7 8 8 8 8 10 10 11 11 12 13 14 14 15 14 14 15 14 14 14 14 15 15 15 15 15 15 15 14 14 14 14 14 14 14 11 13
6 6 5 5 6 6 7 6 6 6 6 7 8 7 7 10 8 9 7 8 10 7 9 10 7 7 7 7 7 7 7 4 6 9 8 8 6 6 6 7 7 7 6 6 7 7 6 6 7 7 7 7 8 8 9 10 10 14 12 12 12 14 16 16 15 15 15 15 15 15 15 15 16 16 16 15 14 14 14 14 15 15 13 12 11
6 7 6 5 6 7 7 7 6 6 6 6 6 8 7 8 10 8 7 11 8 9 9 12 8 8 7 9 6 8 7 9 9 8 9 9 8 7 7 7 8 8 6 7 7 7 7 7 7 7 7 7 7 8 8 8 10 13 14 11 9 10 15 16 17 16 16 16 15 16 16 16 16 16 16 15 14 14 14 14 15 15 14 13 12
5 6 6 5 6 7 6 7 8 7 6 7 6 8 8 10 9 9 7 6 10 9 10 10 12 8 6 3 5 5 8 3 6 6 10 9 10 9 8 8 8 8 8 8 7 7 7 7 8 7 8 7 7 7 7 7 9 11 12 12 11 9 11 15 17 17 16 16 16 15 16 16 16 16 15 15 15 14 15 15 16 15 15 14 13
6 6 7 6 7 7 8 7 9 8 7 7 8 7 8 6 7 6 8 8 8 10 9 9 11 12 8 7 5 4 3 7 12 9 9 8 8 10 9 9 8 8 9 8 9 8 7 7 8 8 8 8 8 7 7 7 9 9 9 12 14 12 11 14 16 17 17 17 16 16 16 15 15 15 15 15 15 16 15 15 16 15 14 14 12
6 7 7 6 7 7 8 8 8 8 8 7 8 8 8 8 6 7 5 6 6 8 9 8 9 10 12 13 10 4 3 5 8 5 7 5 9 9 9 10 10 9 10 10 9 9 8 8 9 9 9 9 8 8 8 8 9 8 9 12 18 15 13 14 15 15 17 17 16 16 15 15 15 15 14 15 15 16 16 16 15 14 12 12 12
6 6 6 6 7 8 8 9 9 9 8 7 8 8 8 7 6 10 9 8 9 9 8 10 9 10 11 12 11 9 10 9 11 3 5 8 7 8 8 10 10 9 10 9 10 10 9 9 9 9 9 9 9 8 8 9 8 10 8 11 17 16 15 15 14 15 16 18 16 16 15 15 15 15 15 14 15 14 14 14 14 14 14 14 13
6 6 6 6 6 7 7 8 9 9 6 7 7 8 8 8 7 7 8 6 8 8 7 8 10 8 9 12 13 11 9 11 11 6 7 8 8 10 10 8 9 10 10 10 9 9 9 9 8 9 9 9 9 9 8 8 8 8 10 14 15 16 16 15 15 15 14 14 17 17 16 16 15 15 15 15 14 13 13 14 14 15 16 16 16
5 5 5 6 6 6 6 8 8 7 5 6 7 7 8 9 9 8 8 7 8 7 11 9 8 10 10 9 10 11 10 9 7 3 9 6 4 7 8 10 11 10 10 10 11 10 9 9 9 9 9 9 9 9 9 9 8 9 10 17 16 16 16 17 18 17 16 15 17 18 17 17 16 16 15 15 15 14 14 14 15 15 15 15 15
5 5 5 6 6 7 6 6 7 7 5 5 6 6 7 7 8 9 10 11 10 10 8 10 7 8 9 6 8 10 10 9 8 5 3 5 5 4 5 9 13 10 11 11 10 11 10 10 10 9 9 10 9 9 9 9 9 10 10 19 17 17 17 18 18 18 19 18 17 18 18 17 17 16 15 15 15 15 14 14 14 15 15 14 15
5 5 5 6 6 6 7 6 6 7 7 6 6 6 6 7 7 7 7 9 12 12 9 10 9 10 10 8 7 10 10 9 7 5 4 3 7 7 9 11 9 10 9 11 12 10 11 10 10 10 9 9 9 9 9 9 10 11 10 17 16 17 18 18 19 18 18 19 18 18 19 19 18 17 16 16 15 15 14 12 14 14 14 15 14
5 6 6 7 7 6 6 7 6 6 7 7 7 7 8 8 8 9 9 10 10 11 10 10 13 11 10 6 3 7 10 10 7 5 6 5 5 8 10 6 7 7 8 10 9 9 9 10 10 10 10 10 9 9 9 9 9 12 11 14 16 17 18 19 19 19 18 18 18 18 19 19 19 18 17 16 16 14 12 11 14 15 15 15 16
6 6 6 8 7 7 7 7 6 6 7 8 8 8 8 8 9 9 9 9 9 12 12 11 9 10 8 7 9 11 11 13 8 8 7 5 7 11 1 5 4 6 7 7 9 9 9 10 10 10 10 10 10 9 9 10 10 12 16 12 15 17 17 18 20 20 19 19 19 19 19 19 19 19 18 16 14 13 11 11 12 15 15 16 17
6 5 6 7 8 8 8 8 8 7 7 7 7 6 7 8 7 9 9 8 8 8 9 9 9 11 13 11 10 9 12 11 8 8 7 8 9 7 2 2 2 5 5 7 8 10 8 9 11 11 10 9 9 9 10 10 10 13 16 12 10 17 17 18 17 18 19 20 19 19 18 18 18 18 17 14 12 11 10 10 11 13 15 16 17
6 7 7 7 7 8 8 7 8 7 7 7 7 6 7 7 8 9 10 7 8 11 10 10 11 12 12 8 8 11 7 8 9 4 2 2 5 4 2 3 3 3 3 4 4 6 8 7 9 11 11 10 9 9 10 10 9 14 14 10 11 11 18 18 18 16 17 19 20 19 18 17 15 15 14 14 13 13 12 11 12 12 15 16 17
4 5 7 7 7 7 8 7 7 7 7 8 8 8 7 6 6 7 8 8 9 10 8 10 10 11 12 13 10 7 7 5 3 3 7 5 4 4 2 5 4 4 3 3 3 5 6 10 6 9 11 10 9 8 9 10 8 12 10 11 11 10 15 19 17 17 17 17 17 19 20 19 16 14 13 13 16 16 14 12 13 14 14 16 16
4 4 5 6 6 7 7 7 7 7 6 7 8 9 8 6 6 6 6 8 8 7 9 9 9 7 9 11 11 10 7 6 4 2 6 8 6 8 7 6 5 7 5 5 3 3 4 8 8 6 10 10 9 8 8 9 11 13 10 11 10 11 14 19 17 17 17 17 16 16 17 19 19 18 16 15 15 16 16 16 15 15 14 15 15
6 6 6 6 7 7 7 7 7 8 6 6 7 8 8 7 6 6 6 6 7 8 6 7 7 7 11 12 9 6 6 7 7 7 9 9 6 7 6 5 7 6 4 4 3 1 3 1 8 12 5 9 9 8 8 9 11 12 10 9 11 11 12 14 17 16 18 17 16 16 15 15 16 17 17 16 15 14 14 15 15 14 15 14 14
5 6 7 7 8 8 8 8 8 8 7 6 7 8 8 5 5 6 6 6 7 9 6 6 6 6 8 9 8 9 7 9 10 6 7 7 7 5 5 6 5 5 4 5 6 6 2 2 3 8 9 9 8 8 7 6 8 14 10 10 8 10 9 8 15 16 16 16 16 16 16 15 15 15 15 14 14 14 14 14 13 13 13 14 15
6 7 7 8 8 8 9 8 8 7 7 6 6 7 7 7 6 7 6 8 7 6 7 7 7 7 7 10 7 8 9 7 5 10 8 5 6 5 4 4 5 4 5 5 5 5 3 3 3 3 9 7 7 7 7 7 7 7 9 9 10 8 9 9 9 17 17 17 16 16 15 15 15 14 14 13 13 13 13 13 13 13 13 13 14
6 8 9 8 8 9 8 8 7 7 6 7 6 6 6 7 6 5 7 7 6 6 6 8 6 5 6 11 12 12 9 10 10 9 9 6 4 6 6 7 7 7 7 6 6 5 6 3 3 4 4 8 8 7 6 7 6 6 9 8 8 9 9 8 9 10 20 17 18 17 16 15 14 14 13 13 13 13 13 13 12 12 12 13 13
7 7 8 8 9 9 8 7 7 6 6 5 5 6 6 7 7 7 8 7 6 7 8 6 7 4 6 7 8 6 5 6 8 7 7 7 9 8 8 7 7 8 7 8 6 6 6 5 4 4 3 4 8 6 6 6 5 5 7 8 7 7 7 8 8 6 19 18 18 17 16 16 15 14 14 13 13 13 12 11 12 11 11 12 12
8 8 8 8 8 7 7 7 6 6 6 6 5 5 6 6 6 7 7 7 6 5 2 5 8 4 6 7 7 6 6 7 6 5 4 4 5 7 8 8 8 8 7 7 8 7 6 6 5 6 3 1 4 9 10 4 6 6 5 6 7 6 5 6 5 5 12 17 15 15 15 15 15 14 14 14 14 14 13 12 12 11 11 12 12
8 8 7 6 6 6 6 7 6 5 6 5 6 6 5 5 6 6 7 7 6 5 4 5 4 5 5 6 6 4 5 6 6 4 7 7 6 5 6 6 6 3 4 8 8 7 7 6 5 4 4 4 4 6 9 7 6 6 6 7 7 6 4 3 3 5 9 9 8 10 11 12 13 13 13 14 13 13 13 13 13 13 12 12 12
8 7 6 6 6 6 6 7 6 5 6 6 6 6 6 6 5 5 5 6 6 6 5 3 7 2 4 4 3 4 5 5 3 3 5 5 6 6 7 6 5 8 9 7 6 7 7 6 5 5 5 5 2 3 7 10 8 6 9 9 3 1 3 3 3 2 2 4 3 5 5 7 11 12 13 12 12 12 12 12 12 11 11 12 12
7 7 6 6 5 6 6 7 7 6 5 5 6 7 7 7 7 6 6 6 6 5 5 5 3 4 3 4 2 3 5 5 4 2 1 1 3 5 5 4 5 4 3 3 5 6 7 7 6 7 5 3 4 5 5 7 7 8 2 1 4 3 1 1 1 2 2 3 6 5 3 4 2 8 12 12 11 11 10 10 10 10 10 10 10
6 6 6 6 6 6 5 6 6 6 5 5 7 7 7 7 6 7 6 6 6 5 5 5 3 5 3 5 6 6 5 6 4 4 3 2 0 1 2 2 3 2 4 3 4 5 5 6 5 5 3 4 4 4 4 8 7 8 8 3 5 3 5 5 6 4 2 3 4 3 5 7 6 4 8 10 11 10 8 7 9 9 10 9 9
5 6 5 7 7 5 4 5 5 4 4 4 6 7 7 8 7 7 6 6 6 6 5 5 5 4 5 4 4 2 5 6 5 2 2 1 1 0 1 1 2 0 1 2 4 6 4 5 6 5 4 5 6 5 5 7 6 8 2 4 5 7 7 7 6 4 4 6 4 8 6 6 5 5 5 6 7 10 9 9 7 11 9 8 9
5 6 6 6 6 6 6 5 4 3 2 3 7 9 7 6 7 6 6 6 5 5 5 5 5 4 4 4 3 5 1 1 2 2 3 3 2 2 1 2 0 1 1 2 3 4 4 6 6 6 5 6 6 7 6 5 4 2 3 4 3 3 4 2 3 2 2 3 5 4 2 2 1 5 4 3 4 7 4 5 4 7 4 7 5
5 5 6 6 5 5 6 6 6 4 3 4 7 8 8 8 7 7 6 5 5 5 5 5 5 4 4 2 1 3 3 4 2 3 2 2 4 2 3 4 3 1 2 2 3 4 5 6 6 7 7 7 7 3 4 3 2 4 3 5 4 6 4 7 6 2 4 6 2 1 3 4 2 4 5 2 4 7 7 7 8 10 7 5 2
6 4 5 6 6 5 5 6 6 6 4 7 8 8 9 9 7 7 6 5 4 4 4 4 5 4 3 2 1 1 1 2 2 4 4 2 1 0 4 4 3 5 3 2 3 3 3 5 4 4 3 4 4 4 2 3 3 2 1 1 3 2 3 2 4 2 2 5 3 2 3 0 3 2 1 5 6 8 8 10 13 11 11 10 9
6 6 4 6 5 5 6 7 7 6 5 9 9 8 8 10 9 8 7 6 5 4 4 3 4 4 3 2 1 1 1 2 5 3 3 3 4 5 6 6 6 4 2 2 3 4 2 4 4 4 3 3 3 3 4 4 3 5 2 0 1 1 1 1 3 3 5 6 5 2 2 2 2 1 2 6 7 8 8 12 13 13 13 13 12
5 6 5 6 6 6 6 6 7 7 5 8 8 9 9 9 9 7 7 6 5 4 3 3 3 3 4 4 2 1 1 1 2 3 3 3 4 5 4 3 3 4 4 3 4 6 6 3 3 2 3 3 3 4 4 2 2 1 3 2 2 1 1 4 4 5 6 8 6 3 2 3 2 1 2 6 8 9 8 9 12 13 14 13 13
6 6 6 5 5 5 6 6 6 8 4 7 8 9 9 10 11 9 4 4 4 4 3 2 2 2 2 4 4 2 1 2 4 6 5 5 5 5 4 4 5 6 7 7 6 6 4 3 2 4 6 6 5 5 4 3 3 3 4 4 3 4 4 3 3 5 6 7 7 4 1 4 3 3 4 3 8 9 8 8 12 12 13 12 11
5 5 5 6 5 5 6 6 6 9 5 9 9 10 10 10 12 6 1 1 1 2 2 2 2 4 4 3 3 2 3 3 6 7 6 5 5 5 6 6 5 7 8 8 7 11 9 8 8 8 7 8 9 8 7 5 4 3 2 2 2 1 1 2 2 3 5 6 8 5 2 3 5 3 4 3 5 8 8 7 9 13 12 12 10
5 5 4 4 4 4 5 6 7 7 4 8 9 9 10 11 10 3 2 1 2 1 1 0 2 4 5 6 4 3 3 4 7 9 8 6 5 7 7 7 7 7 6 8 11 14 15 15 14 12 11 12 13 14 14 13 9 5 1 1 3 2 1 1 2 2 5 4 6 7 4 3 5 4 3 2 3 6 7 6 6 9 12 11 10
5 4 5 5 4 3 3 5 5 6 5 8 9 8 10 10 9 5 2 2 2 2 2 2 3 3 7 12 11 6 4 5 9 9 7 5 5 6 8 8 8 8 7 5 4 7 11 13 12 12 12 11 12 14 15 15 15 11 6 4 4 4 3 2 0 3 5 5 6 8 4 4 3 4 2 1 2 3 5 6 5 6 10 11 12
5 5 5 4 3 3 2 3 2 5 6 6 9 10 10 10 8 3 3 2 2 3 2 3 2 2 4 8 13 10 7 7 9 8 7 5 6 6 8 7 8 8 6 6 6 6 6 7 7 8 9 10 8 8 9 14 15 12 9 7 5 4 3 3 2 1 4 4 6 10 3 4 3 4 3 1 2 3 4 5 5 4 5 5 4
Wind_Direction
250 248 239 220 233 227 213 218 225 207 179 212 204 179 199 216 215 233 224 215 184 194 218 191 221 213 240 189 216 127 148 165 140 162 143 151 158 140 147 139 137 142 150 143 145 157 175 161 168 171 167 165 163 159 153 153 148 147 151 153 153 153 153 155 154 152 148 145 144 148 143 140 140 140 136 135 137 136 135 128 119 123 127 124 124
243 248 254 248 259 254 243 205 225 217 191 202 225 198 200 202 223 225 216 191 216 183 239 200 224 208 254 217 209 148 166 145 171 156 156 167 150 143 148 146 143 147 152 145 152 167 155 169 174 175 166 170 169 162 160 156 153 154 154 155 156 156 156 158 157 154 152 147 148 148 148 142 143 144 140 139 141 143 138 136 134 123 123 132 128
226 230 245 239 229 234 235 227 214 208 212 214 195 228 204 214 222 226 219 216 199 197 223 236 233 201 182 235 191 171 166 136 200 139 165 173 156 155 150 149 148 146 153 152 154 162 171 181 190 182 182 175 178 171 166 162 158 156 157 158 159 160 159 161 160 160 155 149 151 149 151 146 147 147 144 146 145 145 142 140 138 133 128 121 125
250 243 239 228 237 248 233 227 220 207 203 222 192 214 232 215 207 224 254 255 221 210 230 255 249 277 175 214 180 201 157 162 192 145 174 171 166 162 158 154 152 145 150 158 162 164 175 184 189 200 187 182 183 190 172 165 160 158 160 161 164 163 164 163 162 164 161 153 152 152 153 151 151 150 151 150 150 150 148 146 144 141 140 139 134
173 261 247 238 248 244 234 231 226 211 191 211 217 210 228 221 210 226 211 208 220 200 215 232 237 250 265 205 183 208 146 174 145 147 179 173 177 168 165 165 160 152 150 158 162 175 178 178 196 196 179 192 184 177 197 173 160 160 161 164 164 168 165 166 164 169 166 159 158 158 157 156 155 154 157 155 155 156 154 151 150 147 150 142 143
249 233 230 250 232 235 244 226 229 255 219 217 211 215 216 214 214 211 210 226 212 193 218 228 232 194 212 160 257 150 231 174 170 146 185 190 177 179 171 168 168 169 162 149 156 169 173 178 167 173 182 176 189 177 159 194 180 162 163 166 169 168 169 168 169 171 172 166 163 162 161 160 159 160 160 159 159 161 160 159 154 152 148 147 149
265 267 257 245 245 240 232 222 204 219 227 232 242 226 225 216 218 218 203 213 224 199 216 217 216 209 168 194 212 173 206 213 176 174 173 188 189 184 180 171 176 173 169 166 149 154 164 175 168 172 185 195 189 176 182 178 200 169 168 170 169 170 171 170 172 173 172 165 161 166 164 163 165 166 163 163 163 165 166 165 161 160 151 151 152
317 270 251 242 249 250 254 243 219 218 218 224 234 238 221 222 217 223 215 210 206 215 201 207 207 199 198 205 202 190 196 209 182 188 174 175 194 186 193 181 177 171 182 173 171 154 161 174 174 176 187 193 186 181 189 186 194 178 174 175 171 171 172 173 173 177 177 170 166 181 168 169 172 170 168 167 168 168 171 170 167 162 158 157 161
355 313 290 265 251 260 258 227 237 238 212 212 221 232 232 223 218 219 226 218 207 216 204 204 190 206 194 199 199 207 197 202 194 196 168 188 188 188 198 189 179 167 183 186 177 164 160 170 174 176 183 186 182 182 197 194 185 181 187 185 174 173 174 174 176 180 180 175 175 180 174 173 175 175 171 172 173 173 174 175 172 170 167 168 169
334 343 313 288 277 244 240 227 233 247 243 216 216 220 224 226 224 218 222 222 215 207 207 200 187 194 201 197 196 207 201 201 191 211 185 187 187 206 186 192 192 187 185 185 181 172 166 167 173 178 178 186 186 187 189 200 192 191 188 188 180 178 177 177 178 182 182 180 184 176 183 180 178 179 178 175 176 178 177 178 177 175 175 175 172
333 333 327 302 270 267 254 231 243 247 248 248 224 221 221 221 228 221 224 228 221 212 210 203 185 199 203 196 195 201 208 198 190 200 209 196 182 186 199 198 201 195 191 192 184 182 168 183 183 184 177 181 182 191 192 191 206 199 193 190 191 184 182 182 183 183 184 187 187 178 184 188 182 183 184 184 180 181 183 180 182 181 179 182 179
322 324 313 310 310 283 259 254 240 245 241 233 233 224 218 220 219 226 215 221 218 212 196 197 196 199 202 195 206 202 213 202 200 196 202 202 191 191 191 203 203 193 200 202 194 189 187 187 202 194 182 176 183 187 189 193 198 205 196 201 194 193 189 184 186 186 188 191 190 185 187 195 189 186 188 193 186 185 184 185 183 188 189 185 190
320 322 315 307 298 305 287 262 247 242 246 247 236 238 226 222 227 216 218 218 209 207 183 189 188 202 204 203 197 217 223 218 202 199 200 196 202 193 190 197 207 197 199 204 204 197 201 195 202 198 185 173 183 182 189 188 188 200 206 206 195 200 193 189 189 190 192 194 192 190 192 197 196 193 194 195 197 189 188 188 188 189 198 191 192
327 315 310 299 298 297 294 268 252 246 248 238 256 241 238 231 227 223 208 220 221 198 183 183 193 203 200 202 205 204 236 218 208 199 202 197 199 199 194 194 203 206 198 195 207 207 206 205 205 205 198 186 186 182 188 189 192 200 206 208 202 200 195 191 193 192 193 194 194 195 195 197 200 198 199 199 200 200 196 191 193 195 197 200 189
318 318 308 302 294 291 286 292 273 255 248 238 237 243 242 238 230 235 212 220 225 199 197 198 193 207 213 218 195 210 212 233 250 222 201 197 196 197 202 195 200 211 202 209 200 202 209 215 209 203 205 207 198 188 194 192 188 182 206 207 210 203 200 193 195 193 196 195 196 197 198 199 203 202 203 203 202 202 206 196 198 200 201 204 204
313 308 300 297 297 288 285 277 279 265 260 255 241 242 219 251 241 233 246 233 194 218 201 210 235 185 211 214 212 202 202 214 206 216 204 199 198 196 204 203 196 203 216 208 211 204 196 203 213 207 206 207 214 202 199 200 169 170 188 203 213 217 205 197 195 195 197 197 196 199 201 202 204 205 207 206 205 204 204 206 204 202 204 206 210
323 319 309 308 302 294 285 278 273 265 253 251 243 242 237 231 227 229 238 259 237 217 210 210 222 231 212 145 239 198 226 174 186 215 210 195 197 201 201 206 203 202 211 212 214 208 207 200 202 207 212 207 211 212 213 188 169 193 187 191 200 213 220 204 201 198 199 199 197 198 202 204 206 208 209 208 206 208 209 207 210 209 207 209 206
317 314 313 321 311 304 295 287 277 265 249 247 248 246 241 236 253 237 222 236 268 242 214 210 223 220 221 247 270 286 192 194 178 195 190 198 193 202 201 205 211 206 210 214 210 211 209 203 200 207 208 214 206 213 216 200 196 196 203 192 190 193 209 216 210 203 203 198 201 200 202 205 208 211 210 207 207 208 210 213 212 215 212 212 202
298 302 309 316 316 316 309 300 288 274 258 247 245 241 240 236 219 241 230 237 246 275 254 220 219 231 223 224 233 207 200 237 210 162 179 217 215 195 201 202 212 216 214 212 214 214 212 210 205 207 212 213 211 204 212 212 202 215 197 173 178 186 197 207 213 217 205 201 201 206 207 206 211 213 213 212 210 209 209 212 214 214 220 221 207
294 301 305 317 336 331 325 310 301 283 264 254 251 247 244 243 218 224 226 227 225 228 240 244 229 228 220 227 229 219 233 237 262 231 179 175 185 206 207 203 211 217 216 214 214 214 215 213 211 211 213 216 214 208 206 212 209 207 194 145 174 181 191 202 210 215 211 205 200 205 210 212 215 219 218 217 215 213 210 214 214 213 214 221 221
289 293 306 321 343 334 333 318 300 291 262 249 251 252 247 243 238 230 230 213 234 236 248 253 248 237 230 224 225 223 218 233 242 244 233 178 184 192 196 200 212 215 216 214 213 215 219 219 220 219 214 216 220 215 210 212 207 196 208 153 176 183 192 202 209 212 215 219 209 206 205 209 214 219 222 221 221 212 204 209 213 215 216 217 222
286 287 306 320 336 328 323 320 316 298 285 275 268 259 254 246 241 235 232 229 232 223 230 243 260 251 236 232 223 225 228 226 214 232 255 229 193 190 182 191 206 210 213 210 209 213 216 213 215 218 220 216 218 217 210 214 215 207 196 158 176 188 194 206 211 212 214 217 216 213 211 211 211 216 219 221 221 222 204 205 207 215 217 218 220
295 285 302 318 335 333 327 325 326 325 296 277 269 271 259 249 249 243 233 227 232 232 221 243 245 278 290 291 260 237 228 224 221 192 250 228 223 221 196 208 211 203 204 206 209 212 215 214 219 216 220 222 216 216 214 213 218 228 164 163 180 187 196 203 208 212 213 215 217 217 216 215 215 217 219 222 224 223 221 203 207 211 215 217 218
290 286 293 317 330 325 326 331 327 338 326 307 295 270 261 259 254 247 247 243 239 236 224 227 242 250 241 243 256 270 241 231 229 182 182 271 253 231 203 202 202 214 185 193 208 210 211 216 215 217 218 221 224 221 215 215 206 206 149 170 178 188 197 203 206 210 215 216 216 216 217 218 219 219 219 222 225 226 226 205 202 206 212 218 219
308 296 293 308 319 328 329 334 336 338 322 315 297 291 285 272 265 263 254 242 240 240 238 227 231 236 241 229 237 265 270 254 218 194 176 184 242 255 242 212 203 195 170 181 191 205 211 210 215 216 211 214 220 219 216 217 216 179 213 169 187 186 198 203 206 210 212 217 216 216 216 217 219 221 222 225 227 227 224 214 195 203 206 213 219
311 296 296 300 310 315 321 326 325 321 317 320 316 303 290 271 261 257 256 255 254 247 241 231 228 236 248 245 222 238 247 252 221 201 202 190 218 238 52 315 265 242 152 193 185 192 199 210 211 214 214 209 214 215 216 219 221 170 189 214 180 191 197 203 207 209 212 215 217 218 218 217 217 219 223 225 226 227 224 215 198 198 202 211 217
314 314 299 301 302 306 315 317 322 319 316 313 311 305 300 289 275 266 264 253 242 250 260 247 233 230 233 229 238 243 247 249 245 227 187 211 223 255 220 165 293 316 229 190 192 206 194 198 205 206 212 209 208 216 213 217 221 159 181 212 208 188 197 202 206 210 213 215 216 217 219 219 218 218 220 222 225 228 224 215 209 199 201 207 214
319 317 312 298 298 299 302 316 321 322 318 314 311 310 302 295 281 271 267 264 249 239 239 239 242 239 234 230 243 243 251 269 287 350 336 265 268 266 188 208 206 235 303 326 285 224 211 206 196 205 203 206 208 213 213 214 216 156 180 207 219 197 195 200 205 208 210 215 217 217 217 218 217 216 215 214 218 223 225 220 218 208 203 208 213
323 327 330 323 313 313 310 316 322 328 325 316 311 303 295 283 275 277 274 265 266 269 262 249 247 245 240 227 222 237 247 257 281 210 253 255 224 250 200 208 200 218 249 209 237 296 235 217 203 196 207 202 201 205 210 214 186 159 199 214 215 225 185 196 200 206 210 212 217 219 219 219 219 220 216 211 214 218 220 221 221 223 212 212 215
328 337 349 343 353 345 329 319 317 324 321 314 310 310 303 294 283 272 265 268 263 252 249 254 250 258 254 235 229 230 235 231 244 230 250 245 234 240 203 219 212 228 230 231 247 181 304 289 236 196 192 207 195 198 209 217 163 173 212 205 215 221 173 189 195 204 208 211 214 218 220 220 220 222 223 220 219 218 221 221 222 221 215 214 217
337 346 340 347 345 345 345 341 333 320 322 319 314 315 314 314 311 275 261 259 264 260 264 262 256 247 251 240 222 229 231 225 215 203 229 240 232 231 246 216 197 204 198 196 239 294 99 339 318 298 189 204 193 195 206 219 163 183 210 213 211 205 159 185 193 201 208 209 212 215 218 221 224 224 225 227 224 223 223 226 225 221 217 216 216
343 342 340 337 334 334 334 333 334 330 325 331 322 318 321 324 328 315 288 249 251 265 259 246 244 240 245 235 221 224 216 231 225 218 219 222 227 242 254 226 201 183 199 209 234 253 113 249 247 297 274 208 207 197 206 218 144 180 214 213 194 131 174 198 187 200 206 209 212 216 216 220 224 227 228 229 229 229 228 227 227 224 217 215 215
345 339 336 340 335 334 328 325 326 328 335 333 332 324 323 332 342 326 295 271 255 255 260 255 245 234 235 242 216 214 215 226 233 226 226 215 216 214 202 233 199 184 202 207 229 251 252 198 264 275 306 271 201 208 207 202 173 198 219 213 201 197 205 218 193 190 199 205 210 213 216 219 222 226 229 231 233 234 234 233 228 224 222 217 216
336 333 325 326 324 324 326 313 311 323 334 338 337 325 324 331 339 324 317 316 297 269 267 274 262 244 238 244 220 214 210 214 219 226 220 207 230 212 205 215 219 212 206 211 213 226 248 199 239 301 308 301 298 210 217 201 206 192 194 209 207 206 208 209 220 181 192 199 205 209 213 215 217 221 225 230 235 234 236 238 236 233 230 226 222
335 331 325 322 323 325 322 318 316 326 332 337 339 329 333 338 341 333 327 329 313 301 285 292 273 237 239 246 246 217 208 240 227 230 235 217 216 221 220 209 215 211 203 210 203 213 232 231 206 253 264 282 265 267 200 203 214 209 202 201 210 206 209 210 216 215 177 194 198 205 209 210 212 213 217 224 230 235 239 240 241 240 237 235 232
329 327 328 331 334 334 327 317 319 329 334 334 334 337 342 344 338 332 326 319 324 307 256 248 260 231 240 255 243 219 214 217 228 212 211 205 223 224 217 213 211 209 211 205 213 211 212 234 205 211 229 167 285 268 259 217 201 211 239 202 206 211 211 209 206 258 166 182 192 202 207 209 209 210 213 216 220 225 228 232 236 237 238 238 239
331 329 329 338 342 335 332 324 326 326 323 325 335 339 336 338 330 331 321 319 321 310 328 307 292 274 245 236 241 234 229 238 234 232 234 206 210 218 243 225 202 206 221 214 212 216 226 233 229 210 210 218 223 280 280 234 215 223 245 218 195 210 189 214 238 112 117 161 179 203 210 209 211 213 214 214 216 218 220 223 227 230 232 235 237
346 338 333 340 351 337 338 340 324 321 330 337 344 345 337 327 323 323 326 320 319 320 331 328 285 290 263 245 249 202 225 243 259 242 251 228 226 225 222 230 231 202 213 201 204 213 224 232 242 228 215 218 283 278 283 276 252 160 225 224 156 90 156 189 200 220 188 156 185 181 191 215 218 220 216 216 216 217 221 223 227 230 233 235 237
352 345 345 333 339 330 347 345 335 330 332 351 358 347 339 334 325 321 319 318 313 317 313 304 307 294 262 272 235 215 219 223 230 234 241 285 249 245 233 243 239 237 223 195 200 210 215 227 235 241 227 235 220 241 257 278 259 255 232 243 189 165 302 202 233 215 236 184 109 85 62 11 177 200 204 213 212 216 220 223 229 231 234 235 239
343 340 354 342 331 332 350 349 346 348 340 6 3 348 335 330 326 320 311 307 312 315 312 296 294 259 246 210 231 219 212 219 195 182 161 156 64 336 341 298 275 243 219 187 215 220 211 216 230 224 226 226 221 228 226 244 264 260 243 159 218 151 252 242 234 205 233 271 200 179 165 163 177 148 166 195 203 207 206 216 220 229 227 235 236
329 330 340 348 333 322 330 355 347 358 358 16 3 346 333 328 329 321 312 300 300 303 303 302 290 277 257 240 237 317 48 25 46 2 104 79 183 150 350 312 311 249 284 233 222 218 223 226 231 230 224 222 222 212 213 233 229 251 337 278 260 183 211 206 200 198 190 221 217 204 198 223 192 196 191 186 173 179 189 210 202 202 220 228 229
349 324 325 345 349 336 333 344 349 351 15 34 5 338 322 316 317 309 305 294 292 294 300 292 292 291 284 289 83 50 68 215 162 181 142 181 254 304 328 212 216 338 142 266 263 235 209 221 228 232 215 223 225 208 227 235 252 281 234 242 252 251 221 114 279 133 335 293 257 305 173 144 257 249 212 135 130 191 147 166 57 59 147 207 221
328 323 310 321 346 340 333 333 346 350 350 39 360 333 319 309 301 299 302 299 292 283 281 283 291 293 292 273 266 144 163 190 185 168 210 292 281 293 45 37 15 300 281 269 269 262 243 225 225 231 224 225 229 215 236 254 269 251 245 246 225 238 240 222 192 113 35 343 315 178 341 342 356 261 250 116 105 48 48 48 47 76 77 88 109
311 321 312 315 326 336 330 329 339 351 27 57 2 343 324 317 304 300 294 288 290 287 287 289 286 294 318 288 278 267 315 19 291 172 147 112 288 195 93 68 65 45 40 278 281 269 235 225 217 201 207 216 240 220 202 214 224 205 186 255 266 262 264 307 51 90 23 342 348 226 155 286 326 330 83 66 70 65 49 53 62 67 68 61 57
311 309 333 305 312 330 325 329 332 347 4 44 357 342 327 313 306 296 279 268 275 280 309 305 307 315 314 304 260 201 89 354 256 218 200 138 91 104 102 94 72 72 31 336 306 290 283 246 244 247 246 271 220 89 38 5 356 261 213 315 331 351 349 93 51 57 23 355 317 328 293 24 348 7 79 77 85 77 65 48 58 67 68 69 66
301 309 314 303 300 317 322 324 330 338 358 36 350 343 327 317 303 298 270 253 257 277 295 318 317 326 329 333 352 66 78 226 259 256 215 165 143 136 150 166 143 109 83 53 332 301 307 282 201 239 73 13 49 72 62 8 293 17 39 82 45 3 16 47 73 86 47 1 352 332 242 89 23 315 96 90 87 83 74 63 70 73 73 72 70
294 301 302 295 303 314 318 328 331 332 67 34 8 343 333 319 314 296 272 261 252 243 271 292 312 0 356 338 330 23 79 61 36 339 262 183 163 164 151 90 61 43 31 12 3 356 293 250 117 80 68 52 55 61 58 58 52 46 32 44 42 49 64 103 113 99 74 26 353 316 346 63 12 35 40 57 101 97 95 79 78 82 80 77 75
279 282 290 293 304 316 321 325 330 335 75 43 14 347 335 324 312 291 351 251 255 274 297 313 340 27 9 349 330 12 53 58 30 344 312 299 185 153 130 104 83 67 55 37 41 67 56 53 60 68 66 66 61 58 39 26 44 53 97 90 82 87 104 87 93 84 72 35 14 6 56 74 26 41 74 68 104 104 100 96 94 91 85 81 77
285 289 277 293 307 306 318 326 337 332 358 57 19 348 336 334 317 331 26 355 100 159 98 234 96 54 26 2 344 10 26 41 7 336 323 309 156 133 127 114 94 79 72 62 58 68 75 78 82 89 89 77 65 52 42 36 27 350 358 24 49 11 38 166 123 142 79 49 26 8 336 68 36 30 64 62 87 115 126 134 125 111 109 103 96
289 279 290 296 289 296 316 330 351 327 334 73 21 358 336 333 312 318 27 17 24 105 136 118 109 83 58 42 20 14 9 29 351 325 317 294 125 128 121 121 111 105 105 98 89 81 85 82 77 70 64 62 59 55 45 39 32 23 25 56 24 346 352 325 222 123 95 57 26 352 308 72 53 38 21 50 96 74 79 59 75 135 129 111 98
279 270 269 279 288 293 345 336 19 309 336 74 40 3 340 336 322 325 70 54 21 42 61 97 82 85 94 69 48 23 8 355 334 326 328 307 132 133 132 125 120 118 122 123 105 89 77 71 63 64 56 54 53 52 48 45 41 41 40 30 2 349 346 4 19 144 124 74 19 351 348 50 15 46 351 204 154 101 77 95 71 51 22 10 60